When you browse on this site, cookies collect data to enhance your experience and personalize the content and advertising you see.
Visit our Privacy Policy to learn more. By continuing to use the site, you agree to this use of cookies and data.
  • In Hungary
  • List of Countries
  • For 7 days
  • Water Temperature
  • Weather Map
  • News
  • Weather Widgets
  • user-avatar
    Login

    Hourly Weather Oakland

    Today, 18 November, Monday

    Time Temperature Precipitation Wind Pressure Humidity
    00:00 +18°C° 0 mm 1 mps 759 mmHg 55%
    01:00 +18°C° 0 mm 1 mps 759 mmHg 54%
    02:00 +16°C° 0 mm 1 mps 759 mmHg 56%
    03:00 +16°C° 0 mm 1 mps 758 mmHg 57%
    04:00 +15°C° 0 mm 1 mps 758 mmHg 58%
    05:00 +15°C° 0 mm 1 mps 758 mmHg 60%
    06:00 +15°C° 0 mm 1 mps 758 mmHg 63%
    07:00 +15°C° 0 mm 1 mps 758 mmHg 65%
    08:00 +18°C° 0 mm 1 mps 758 mmHg 58%
    09:00 +20°C° 0 mm 1 mps 758 mmHg 52%
    10:00 +22°C° 0 mm 1 mps 758 mmHg 46%
    11:00 +23°C° 0 mm 2 mps 758 mmHg 43%
    12:00 +24°C° 0 mm 2 mps 757 mmHg 40%
    13:00 +25°C° 0 mm 2 mps 756 mmHg 37%
    14:00 +24°C° 0 mm 2 mps 756 mmHg 37%
    15:00 +24°C° 0 mm 2 mps 756 mmHg 38%
    16:00 +23°C° 0 mm 2 mps 755 mmHg 39%
    17:00 +21°C° 0 mm 2 mps 755 mmHg 47%
    18:00 +19°C° 0 mm 2 mps 756 mmHg 55%
    19:00 +17°C° 0 mm 2 mps 756 mmHg 63%
    20:00 +18°C° 0 mm 1 mps 756 mmHg 67%
    21:00 +16°C° 0 mm 1 mps 756 mmHg 70%
    22:00 +16°C° 0 mm 1 mps 756 mmHg 74%
    23:00 +16°C° 0 mm 1 mps 756 mmHg 75%

    Tomorrow, 19 November, Tuesday

    Time Temperature Precipitation Wind Pressure Humidity
    00:00 +16°C° 0 mm 2 mps 755 mmHg 76%
    01:00 +15°C° 0 mm 2 mps 755 mmHg 77%
    02:00 +15°C° 0 mm 2 mps 755 mmHg 81%
    03:00 +15°C° 0 mm 2 mps 754 mmHg 84%
    04:00 +15°C° 0 mm 2 mps 754 mmHg 88%
    05:00 +14°C° 0 mm 3 mps 754 mmHg 89%
    06:00 +14°C° 0 mm 3 mps 754 mmHg 91%
    07:00 +14°C° 0 mm 3 mps 754 mmHg 92%
    08:00 +14°C° 0 mm 4 mps 754 mmHg 83%
    09:00 +15°C° 0 mm 4 mps 754 mmHg 73%
    10:00 +16°C° 0 mm 5 mps 754 mmHg 64%
    11:00 +16°C° 0 mm 5 mps 753 mmHg 60%
    12:00 +17°C° 0 mm 5 mps 753 mmHg 56%
    13:00 +17°C° 0 mm 6 mps 752 mmHg 52%
    14:00 +16°C° 0 mm 6 mps 752 mmHg 55%
    15:00 +16°C° 0 mm 6 mps 751 mmHg 58%
    16:00 +15°C° 0 mm 6 mps 751 mmHg 61%
    17:00 +14°C° 0 mm 5 mps 751 mmHg 66%
    18:00 +13°C° 0 mm 4 mps 750 mmHg 71%
    19:00 +12°C° 0 mm 3 mps 750 mmHg 77%
    20:00 +13°C° 0 mm 2 mps 750 mmHg 77%
    21:00 +13°C° 0 mm 2 mps 750 mmHg 78%
    22:00 +12°C° 0 mm 1 mps 750 mmHg 78%
    23:00 +12°C° 0 mm 1 mps 749 mmHg 75%

    Day after tomorrow, 20 November, Wednesday

    Time Temperature Precipitation Wind Pressure Humidity
    00:00 +12°C° 0 mm 1 mps 749 mmHg 73%
    01:00 +12°C° 0 mm 1 mps 749 mmHg 70%
    02:00 +12°C° 0 mm 1 mps 749 mmHg 67%
    03:00 +12°C° 0 mm 1 mps 749 mmHg 64%
    04:00 +11°C° 0 mm 1 mps 749 mmHg 61%
    05:00 +10°C° 0 mm 2 mps 749 mmHg 61%
    06:00 +10°C° 0 mm 2 mps 749 mmHg 60%
    07:00 +10°C° 0 mm 2 mps 749 mmHg 60%
    08:00 +13°C° 0 mm 2 mps 749 mmHg 53%
    09:00 +15°C° 0 mm 2 mps 749 mmHg 45%
    10:00 +17°C° 0 mm 3 mps 749 mmHg 38%
    11:00 +18°C° 0 mm 3 mps 749 mmHg 34%
    12:00 +19°C° 0 mm 4 mps 749 mmHg 31%
    13:00 +20°C° 0 mm 4 mps 748 mmHg 28%
    14:00 +20°C° 0 mm 4 mps 748 mmHg 28%
    15:00 +20°C° 0 mm 4 mps 748 mmHg 27%
    16:00 +20°C° 0 mm 4 mps 748 mmHg 26%
    17:00 +19°C° 0 mm 4 mps 748 mmHg 25%
    18:00 +17°C° 0 mm 5 mps 748 mmHg 23%
    19:00 +16°C° 0 mm 6 mps 749 mmHg 21%
    20:00 +16°C° 0 mm 6 mps 749 mmHg 20%
    21:00 +15°C° 0 mm 6 mps 750 mmHg 19%
    22:00 +15°C° 0 mm 6 mps 750 mmHg 18%
    23:00 +14°C° 0 mm 5 mps 750 mmHg 21%

    21 November, Thursday

    Time Temperature Precipitation Wind Pressure Humidity
    00:00 +13°C° 0 mm 4 mps 751 mmHg 24%
    01:00 +12°C° 0 mm 3 mps 751 mmHg 27%
    02:00 +11°C° 0 mm 3 mps 751 mmHg 29%
    03:00 +11°C° 0 mm 4 mps 752 mmHg 32%
    04:00 +11°C° 0 mm 4 mps 752 mmHg 34%
    05:00 +10°C° 0 mm 4 mps 752 mmHg 35%
    06:00 +10°C° 0 mm 4 mps 753 mmHg 37%
    07:00 +8°C° 0 mm 4 mps 753 mmHg 38%
    08:00 +10°C° 0 mm 3 mps 754 mmHg 36%
    09:00 +12°C° 0 mm 3 mps 754 mmHg 34%
    10:00 +13°C° 0 mm 3 mps 755 mmHg 32%
    11:00 +16°C° 0 mm 2 mps 755 mmHg 32%
    12:00 +17°C° 0 mm 2 mps 755 mmHg 33%
    13:00 +18°C° 0 mm 2 mps 755 mmHg 33%
    14:00 +19°C° 0 mm 1 mps 755 mmHg 35%
    15:00 +19°C° 0 mm 1 mps 755 mmHg 36%
    16:00 +19°C° 0 mm 1 mps 755 mmHg 38%
    17:00 +18°C° 0 mm 1 mps 756 mmHg 41%
    18:00 +15°C° 0 mm 1 mps 756 mmHg 45%
    19:00 +14°C° 0 mm 1 mps 757 mmHg 49%
    20:00 +14°C° 0 mm 1 mps 757 mmHg 51%
    21:00 +13°C° 0 mm 1 mps 758 mmHg 52%
    22:00 +12°C° 0 mm 0 mps 758 mmHg 54%
    23:00 +13°C° 0 mm 1 mps 759 mmHg 55%

    22 November, Friday

    Time Temperature Precipitation Wind Pressure Humidity
    00:00 +13°C° 0 mm 1 mps 759 mmHg 56%
    01:00 +12°C° 0 mm 1 mps 759 mmHg 57%
    02:00 +12°C° 0 mm 1 mps 759 mmHg 57%
    03:00 +12°C° 0 mm 1 mps 760 mmHg 57%
    04:00 +12°C° 0 mm 1 mps 760 mmHg 57%
    05:00 +12°C° 0 mm 1 mps 760 mmHg 57%
    06:00 +11°C° 0 mm 1 mps 760 mmHg 57%
    07:00 +10°C° 0 mm 2 mps 761 mmHg 57%
    08:00 +12°C° 0 mm 2 mps 761 mmHg 53%
    09:00 +14°C° 0 mm 2 mps 762 mmHg 48%
    10:00 +15°C° 0 mm 2 mps 762 mmHg 43%
    11:00 +16°C° 0 mm 2 mps 762 mmHg 41%
    12:00 +17°C° 0 mm 2 mps 761 mmHg 39%
    13:00 +18°C° 0 mm 2 mps 761 mmHg 37%
    14:00 +19°C° 0 mm 1 mps 761 mmHg 38%
    15:00 +19°C° 0 mm 1 mps 761 mmHg 38%
    16:00 +18°C° 0 mm 1 mps 761 mmHg 39%
    17:00 +18°C° 0 mm 1 mps 761 mmHg 40%
    18:00 +16°C° 0 mm 1 mps 761 mmHg 41%
    19:00 +15°C° 0 mm 1 mps 761 mmHg 43%
    20:00 +15°C° 0 mm 1 mps 762 mmHg 44%
    21:00 +14°C° 0 mm 1 mps 762 mmHg 45%
    22:00 +14°C° 0 mm 1 mps 762 mmHg 46%
    23:00 +13°C° 0 mm 1 mps 762 mmHg 47%

    23 November, Saturday

    Time Temperature Precipitation Wind Pressure Humidity
    00:00 +13°C° 0 mm 1 mps 762 mmHg 48%
    01:00 +13°C° 0 mm 1 mps 762 mmHg 49%
    02:00 +12°C° 0 mm 1 mps 762 mmHg 49%
    03:00 +12°C° 0 mm 1 mps 762 mmHg 49%
    04:00 +12°C° 0 mm 1 mps 761 mmHg 49%
    05:00 +12°C° 0 mm 1 mps 762 mmHg 49%
    06:00 +11°C° 0 mm 1 mps 762 mmHg 49%
    07:00 +11°C° 0 mm 1 mps 762 mmHg 49%
    08:00 +13°C° 0 mm 1 mps 762 mmHg 44%
    09:00 +15°C° 0 mm 1 mps 762 mmHg 40%
    10:00 +16°C° 0 mm 1 mps 762 mmHg 36%
    11:00 +19°C° 0 mm 1 mps 762 mmHg 34%
    12:00 +20°C° 0 mm 1 mps 761 mmHg 32%
    13:00 +21°C° 0 mm 1 mps 761 mmHg 30%
    14:00 +21°C° 0 mm 1 mps 760 mmHg 31%
    15:00 +19°C° 0 mm 2 mps 760 mmHg 32%
    16:00 +19°C° 0 mm 2 mps 760 mmHg 32%
    17:00 +19°C° 0 mm 1 mps 760 mmHg 37%
    18:00 +16°C° 0 mm 1 mps 760 mmHg 42%
    19:00 +15°C° 0 mm 1 mps 760 mmHg 46%
    20:00 +14°C° 0 mm 1 mps 761 mmHg 49%
    21:00 +14°C° 0 mm 1 mps 761 mmHg 51%
    22:00 +13°C° 0 mm 0 mps 761 mmHg 53%
    23:00 +12°C° 0 mm 0 mps 761 mmHg 55%
    Show more